ORBCOMM-X [-] 1 21576U 91050C 12038.91589508 .00000198 00000-0 76664-4 0 8423 2 21576 98.6016 2.9990 0004418 34.7765 325.3706 14.40282601 79540 ORBCOMM FM01 [-] 1 23545U 95017A 12039.88070282 .00001204 00000-0 24726-3 0 308 2 23545 69.9695 2.4653 0011660 279.8990 80.0843 14.63104394895340 ORBCOMM FM02 [-] 1 23546U 95017B 12039.32742619 .00001129 00000-0 23441-3 0 868 2 23546 69.9767 6.6229 0013011 269.9505 90.0143 14.62732772895261 ORBCOMM FM08 [+] 1 25112U 97084A 12038.69143042 .00000824 00000-0 33474-3 0 283 2 25112 45.0174 126.7987 0011033 226.8694 133.1234 14.35125406738892 ORBCOMM FM10 [+] 1 25113U 97084B 12039.56140023 .00000443 00000-0 20291-3 0 7510 2 25113 45.0196 123.5893 0008334 211.0283 149.0079 14.35113856739012 ORBCOMM FM11 [+] 1 25114U 97084C 12039.34464603 .00000364 00000-0 17556-3 0 6904 2 25114 45.0184 124.1857 0008266 211.1705 148.8661 14.35114075738984 ORBCOMM FM12 [+] 1 25115U 97084D 12039.46697807 .00000546 00000-0 23865-3 0 6869 2 25115 45.0179 123.3561 0007791 213.6605 146.3753 14.35119865739001 ORBCOMM FM09 [+] 1 25116U 97084E 12039.47570437 .00000551 00000-0 24047-3 0 8524 2 25116 45.0186 123.7542 0007616 202.0112 158.0449 14.35102835739005 ORBCOMM FM05 [+] 1 25117U 97084F 12039.23090792 .00000584 00000-0 25170-3 0 7848 2 25117 45.0180 125.1360 0004732 227.8803 132.1604 14.35112536738961 ORBCOMM FM06 [+] 1 25118U 97084G 12039.64060242 .00000397 00000-0 18698-3 0 6715 2 25118 45.0186 123.0743 0004183 232.6398 127.4075 14.35124717739024 ORBCOMM FM07 [+] 1 25119U 97084H 12039.65665857 .00000609 00000-0 26049-3 0 9471 2 25119 45.0175 123.1908 0005821 219.3308 140.7104 14.35121258739028 ORBCOMM FM03 [-] 1 25158U 98007B 12038.76894333 .00000368 00000-0 20518-3 0 6748 2 25158 107.9632 269.8902 0048574 61.3361 299.2644 14.26211012727131 ORBCOMM FM04 [+] 1 25159U 98007C 12039.39419300 .00000289 00000-0 17296-3 0 6736 2 25159 107.9622 270.9640 0044186 61.4702 299.0878 14.26245902727253 ORBCOMM FM17 [-] 1 25413U 98046A 12039.52186801 .00000079 00000-0 86663-4 0 8109 2 25413 44.9970 76.1472 0001444 194.6896 165.3893 14.28155447704796 ORBCOMM FM18 [+] 1 25414U 98046B 12039.35344933 .00000236 00000-0 14515-3 0 8362 2 25414 44.9962 71.7915 0001863 141.5359 218.5596 14.29623749704833 ORBCOMM FM19 [+] 1 25415U 98046C 12039.36276606 .00000226 00000-0 14151-3 0 8786 2 25415 44.9966 71.9641 0000781 107.6161 252.4748 14.29633120704838 ORBCOMM FM20 [+] 1 25416U 98046D 12039.51278289 .00000429 00000-0 21991-3 0 3075 2 25416 44.9963 71.4565 0003560 259.5363 100.5085 14.29622579704816 ORBCOMM FM16 [+] 1 25417U 98046E 12039.38352094 .00000453 00000-0 22920-3 0 9186 2 25417 44.9989 73.2000 0002667 201.9653 158.1031 14.29624340704839 ORBCOMM FM15 [+] 1 25418U 98046F 12039.46394507 .00000589 00000-0 28214-3 0 9611 2 25418 44.9996 73.0820 0002618 178.9114 181.1688 14.29616376704842 ORBCOMM FM14 [+] 1 25419U 98046G 12039.54306368 .00000685 00000-0 31918-3 0 9251 2 25419 44.9997 72.6123 0000952 225.3638 134.7129 14.29622998704854 ORBCOMM FM13 [+] 1 25420U 98046H 12039.27343113 .00000485 00000-0 24187-3 0 8158 2 25420 45.0002 74.2899 0002144 163.1462 196.9441 14.29613931704845 ORBCOMM FM21 [+] 1 25475U 98053A 12038.73145610 .00000438 00000-0 22305-3 0 7919 2 25475 45.0097 160.1993 0002168 78.5593 281.5488 14.29742287697940 ORBCOMM FM22 [+] 1 25476U 98053B 12039.46403872 .00000189 00000-0 12674-3 0 4624 2 25476 45.0094 157.1497 0002520 137.7416 222.3597 14.29764690698034 ORBCOMM FM23 [+] 1 25477U 98053C 12039.51690011 .00000108 00000-0 95582-4 0 7831 2 25477 45.0099 156.5643 0002353 128.4558 231.6482 14.29747194698210 ORBCOMM FM24 [+] 1 25478U 98053D 12039.36782962 .00000429 00000-0 21984-3 0 3715 2 25478 45.0100 157.5802 0001975 166.6722 193.4210 14.29711705698176 ORBCOMM FM25 [+] 1 25479U 98053E 12039.76155318 .00002086 00000-0 85874-3 0 6621 2 25479 45.0088 155.1582 0003605 122.1868 237.9302 14.29774918698228 ORBCOMM FM26 [-] 1 25480U 98053F 12038.72079228 .00000097 00000-0 91070-4 0 7260 2 25480 45.0091 149.0681 0006417 134.2479 225.8891 14.29892187698196 ORBCOMM FM27 [+] 1 25481U 98053G 12039.49944338 .00000330 00000-0 18186-3 0 2530 2 25481 45.0086 156.0430 0001288 171.9756 188.1145 14.29620191698184 ORBCOMM FM28 [-] 1 25482U 98053H 12038.68437816 .00000631 00000-0 29178-3 0 3739 2 25482 45.0105 124.9780 0003812 140.4732 219.6392 14.30755341698518 ORBCOMM FM30 [+] 1 25980U 99065A 12039.24929769 .00000540 00000-0 26312-3 0 2995 2 25980 45.0357 324.7652 0005017 283.5244 76.5047 14.29590722635475 ORBCOMM FM31 [+] 1 25981U 99065B 12039.23464374 .00000585 00000-0 28071-3 0 3962 2 25981 45.0265 321.8380 0004708 290.9983 69.0330 14.29597363635467 ORBCOMM FM32 [P] 1 25982U 99065C 12039.18420515 .00000077 00000-0 83444-4 0 3373 2 25982 45.0237 319.1868 0006609 284.3853 75.6260 14.29795515635490 ORBCOMM FM33 [+] 1 25983U 99065D 12039.89282714 .00000207 00000-0 12890-3 0 3875 2 25983 45.0344 317.5137 0007458 215.4854 144.5499 14.31781925635606 ORBCOMM FM36 [+] 1 25984U 99065E 12039.22140314 .00000327 00000-0 18090-3 0 3468 2 25984 45.0406 326.6545 0002172 181.7595 178.3247 14.29607449635460 ORBCOMM FM35 [+] 1 25985U 99065F 12039.20765464 .00000111 00000-0 96927-4 0 3711 2 25985 45.0443 327.7859 0003453 295.7928 64.2578 14.29592203635462 ORBCOMM FM34 [+] 1 25986U 99065G 12039.75277016 .00000454 00000-0 22988-3 0 3099 2 25986 45.0432 324.6430 0003751 266.9115 93.1315 14.29585869635540 ORBCOMM FM38 [-] 1 33060U 08031A 12039.02234083 .00000490 00000-0 11437-3 0 1210 2 33060 48.4442 240.4001 0007160 170.1642 189.9409 14.69558073195324 ORBCOMM FM41 [-] 1 33061U 08031B 12038.71778304 .00000344 00000-0 90136-4 0 1363 2 33061 48.4465 242.4822 0005962 158.2691 201.8461 14.69512440195287 ORBCOMM FM29 [-] 1 33062U 08031C 12038.71683052 .00000415 00000-0 10258-3 0 1128 2 33062 48.4436 245.0725 0007861 160.2078 199.9111 14.69192170195248 ORBCOMM FM39 [-] 1 33063U 08031D 12039.70591864 .00000343 00000-0 91094-4 0 1306 2 33063 48.4421 242.2186 0009795 158.5505 201.5804 14.68933075195364 ORBCOMM FM37 [-] 1 33064U 08031E 12039.53391004 .00000435 00000-0 10588-3 0 1100 2 33064 48.4432 240.5103 0008267 168.1443 191.9665 14.69209398195371 ORBCOMM FM40 [-] 1 33065U 08031F 12038.74880101 .00000457 00000-0 11003-3 0 986 2 33065 48.4457 247.0221 0008751 160.6803 199.4430 14.69013577195226